sat.trackr.live / text

‹ back to catalog

STARLINK-3962

NORAD 52708 · 2022-053BE

PAYLOAD ACTIVE UNKNOWN

§ Identity

Operator
Country
US
Launch date
2022-05-18
Launch site
AFETR
Launch vehicle
Mass (kg)
RCS (m²)

Purposes: comms

External: N2YO · Heavens-Above · Gunter

§ Orbital elements

Epoch: 2026-09-20T05:10:37.426080Z

Period
93.79 min
Inclination
53.1602°
Eccentricity
0.0001240
Mean motion
15.35401933 rev/d
Perigee alt
458.9 km
Apogee alt
460.6 km
Semi-major
6,837.9 km
B*
1.6590e-5
RAAN
327.1935°
Arg perigee
75.8641°
Mean anomaly
284.2500°
Rev number
24,107

§ Raw data

STARLINK-39621 52708U 22053BE  26263.21571095  .00000198  00000+0  16590-4 0  99952 52708  53.1602 327.1935 0001240  75.8641 284.2500 15.35401933241078

JSON: /api/v1/satellites/52708 · /tle

For live sub-satellite position, see the globe view (requires WebGL).

§ Visibility from observer

Set your observer location to see the next 7 days of passes ≥ 10°. The values pass through the URL so the page stays shareable.

No JS? Fill the form by hand. The geolocation button needs JavaScript.